Regional Weather Roundup
Issued by NWS

Home | Current Version | Previous Version | Text Only | Print | Product List | Glossary On
Versions: 1 2 3 4 5 6 7 8 9 10 11 12 13 14 15 16 17 18 19 20 21 22 23 24 25 26 27 28
000
ASUS45 KREV 071810
RWRNV
NEVADA REGIONAL WEATHER ROUNDUP
NATIONAL WEATHER SERVICE RENO NV
1000 AM PST WED DEC 07 2016

NOTE: "FAIR" INDICATES FEW OR NO CLOUDS BELOW 12,000 FEET WITH NO
SIGNIFICANT WEATHER AND/OR OBSTRUCTIONS TO VISIBILITY.

NVZ001-003-004-071900-
WESTERN NEVADA

CITY           SKY/WX    TMP DP  RH WIND       PRES   REMARKS
RENO           PTSUNNY   30  17  58 VRB6      30.20S
6HR MIN TEMP:  22; 6HR MAX TEMP:  30;

CARSON CITY    CLOUDY    28  16  59 E13       30.21R
MINDEN         CLOUDY    28  18  64 NW7       30.20S
PYRAMID LAKE     N/A     28 N/A N/A SE12        N/A
FALLON         NOT AVBL
LOVELOCK       MOSUNNY   24  16  71 NE9       30.25F
6HR MIN TEMP:  12; 6HR MAX TEMP:  24;

HAWTHORNE        N/A     34  21  60 CALM      30.23R
$$

NVZ002-CAZ072-073-071900-
NORTHERN AND CENTRAL SIERRA

CITY           SKY/WX    TMP DP  RH WIND       PRES   REMARKS
S. LAKE TAHOE  SUNNY     24   9  52 S3        30.10R
6HR MIN TEMP:   8; 6HR MAX TEMP:  24;

TRUCKEE        MOSUNNY   19  16  86 CALM      30.13S
SQUAW VLY 8000   N/A     21  18  86 CALM        N/A
SUSANVILLE     CLOUDY   N/A N/A N/A CALM      30.22S
MAMMOTH LAKES  FAIR      27  13  55 SE5       30.10R
6HR MIN TEMP:  17; 6HR MAX TEMP:  28;

BRIDGEPORT       N/A     23  11  60 CALM      30.08S
$$

NVZ030-031-036-071900-
NORTHERN NEVADA

CITY           SKY/WX    TMP DP  RH WIND       PRES   REMARKS
ELKO           SUNNY     21   6  52 CALM      30.24R
6HR MIN TEMP:   9; 6HR MAX TEMP:  21;

WINNEMUCCA     SUNNY     20  14  77 NE14      30.26R
6HR MIN TEMP:   0; 6HR MAX TEMP:  21;

WENDOVER       SUNNY     25   7  46 E7        30.30S
$$

NVZ035-037-071900-
CENTRAL NEVADA

CITY           SKY/WX    TMP DP  RH WIND       PRES   REMARKS
ELY            SUNNY     20  11  68 N8        30.17S
6HR MIN TEMP:   1; 6HR MAX TEMP:  20; 6HR PCP: TRACE;

EUREKA           N/A     21  12  68 CALM      30.19R
6HR MIN TEMP:   6; 6HR MAX TEMP:  22;

$$

NVZ013-014-071900-
SOUTH CENTRAL NEVADA

CITY           SKY/WX    TMP DP  RH WIND       PRES   REMARKS
TONOPAH        SUNNY     29  11  47 CALM      30.18R
6HR MIN TEMP:  16; 6HR MAX TEMP:  30;

$$

NVZ017-020-022-071900-
SOUTHERN NEVADA

CITY           SKY/WX    TMP DP  RH WIND       PRES   REMARKS
LAS VEGAS      PTSUNNY   50   7  17 N9        30.19R
6HR MIN TEMP:  44; 6HR MAX TEMP:  50;

N. LAS VEGAS   SUNNY     50   8  18 N16       30.18R
6HR MIN TEMP:  42; 6HR MAX TEMP:  50;

NELLIS AFB     MOSUNNY   50   9  18 NW12      30.19R
6HR MIN TEMP:  44; 6HR MAX TEMP:  50;

HENDERSON        N/A     48   8  19 NE12      30.19
MERCURY        SUNNY     41  11  29 NE20      30.18S
6HR MIN TEMP:  34; 6HR MAX TEMP:  41;

$$




USA.gov is the U.S. government's official web portal to all federal, state and local government web resources and services.